Domov               UVHVVR             MKGP            O straneh              
ZDRAVSTVENO VARSTVO RASTLIN
  MREŽA AGROMET. POSTAJ
 ► PROGNOSTIČNA OBVESTILA
AGROMETEOROLOŠKI PODATKI -
ARSO
OBVLADOVANJE TVEGANJ ZARADI
NEUGODNIH VREMENSKIH RAZMER
  ► NARAVNE NESREČE
  ► SUŠA/MOČA
  ► NAMAKANJE
  ► ŽLED (gozdarstvo)
KARTOGRAFSKI PRIKAZI
SPLETNE POVEZAVE
PROJEKTI IN PUBLIKACIJE

AGROMETEOROLOŠKA MREŽA: VREMENSKE POSTAJE IN FENOLOŠKA OPAZOVANJA

Pregled podatkov za lokacijo Savci, meteorološka postaja 27393

Pregled senzorjev na lokaciji

ID Ime Zadnja
vrednost
Datum
zadnje
spremembe
Tip
senzorja
942 Omočenost lista (U) 0 U 25.2.2018 11:51 A730WET
1378 Padavine (mm) 0 mm 25.2.2018 11:51 Generic 0.2 mm
944 Relativna vlaga 2 m (% RH) 55,51 % RH 25.2.2018 11:51 Generic 0 - 100 %
943 Temperatura 2 m (°C) -5,89 °C 25.2.2018 11:51 Generic -40 - +60 °C

Pregled podatkov zadnjih 24 ur

Zap.
št.
Datum in čas Savci
Omočenost
lista
Padavine Relativna
vlaga
2
m
Temperatura
2
m
1 25.2.2018 12:30
2 25.2.2018 12:00 0 0 55,5 -5,9
3 25.2.2018 11:30 0 0 57,9 -7
4 25.2.2018 11:00 0 0 61,3 -7,7
5 25.2.2018 10:30 0 0 63,1 -8,3
6 25.2.2018 10:00 0 0 64,7 -8,7
7 25.2.2018 09:30 0 0 65,7 -9
8 25.2.2018 09:00 0 0 67,3 -8,8
9 25.2.2018 08:30 0 0 71,4 -10,2
10 25.2.2018 08:00 0 0 71,9 -10,5
11 25.2.2018 07:30 0 0 71,1 -10
12 25.2.2018 07:00 0 0 71 -9,7
13 25.2.2018 06:30 0 0 70,4 -9,4
14 25.2.2018 06:00 0 0 69,9 -9,2
15 25.2.2018 05:30 0 0 70,2 -9
16 25.2.2018 05:00 0 0 69,4 -8,6
17 25.2.2018 04:30 0 0 68,8 -8,2
18 25.2.2018 04:00 0 0 69,8 -7,8
19 25.2.2018 03:30 0 0 70,2 -7,3
20 25.2.2018 03:00 0 0 70,7 -7,3
21 25.2.2018 02:30 0 0 71,8 -6,9
22 25.2.2018 02:00 0 0 71,2 -6,9
23 25.2.2018 01:30 0 0 70,9 -6,8
24 25.2.2018 01:00 0 0 69,8 -6,4
25 25.2.2018 00:30 0 0 66,5 -6
26 25.2.2018 00:00 0 0 65,5 -5,6
27 24.2.2018 23:30 0 0 61,6 -5
28 24.2.2018 23:00 0 0 59,6 -4,8
29 24.2.2018 22:30 0 0 60,5 -4,6
30 24.2.2018 22:00 0 0 61,1 -4,5
31 24.2.2018 21:30 0 0 61,8 -4,3
32 24.2.2018 21:00 0 0 66,9 -3,9
33 24.2.2018 20:30 0 0 71,1 -3,8
34 24.2.2018 20:00 0 0 72 -4,2
35 24.2.2018 19:30 0 0 72,1 -5
36 24.2.2018 19:00 0 0 68,8 -4,1
37 24.2.2018 18:30 0 0 67,1 -3,9
38 24.2.2018 18:00 0 0 66,3 -3,4
39 24.2.2018 17:30 0 0 66,3 -2,8
40 24.2.2018 17:00 0 0 66,3 -1,8
41 24.2.2018 16:30 0 0 62,4 -1,3
42 24.2.2018 16:00 0 0 63,3 -1,2
43 24.2.2018 15:30 1 0 68,3 -1,4
44 24.2.2018 15:00 2 0 70,3 -1,4
45 24.2.2018 14:30 2 0 71 -1,5
46 24.2.2018 14:00 0 0 71,7 -2,2
47 24.2.2018 13:30 0 0 72,3 -2,2
48 24.2.2018 13:00 0 0 72,3 -2,4
© 2011 Ministrstvo za kmetijstvo, gozdarstvo in prehrano. Vse pravice pridržane.